Previsão horária em Ploskoe

Hoje, 5 Março, Sexta-feira

Tempo Temperatura Precipitação Vento Pressão Humidade
00:00 -7°C° 0 mm 3 m/s 735 mmHg 92%
01:00 -8°C° 0 mm 3 m/s 736 mmHg 93%
02:00 -8°C° 0 mm 3 m/s 736 mmHg 93%
03:00 -9°C° 0 mm 3 m/s 736 mmHg 94%
04:00 -9°C° 0 mm 3 m/s 737 mmHg 95%
05:00 -9°C° 0 mm 3 m/s 737 mmHg 95%
06:00 -9°C° 0 mm 3 m/s 737 mmHg 95%
07:00 -9°C° 0 mm 3 m/s 738 mmHg 94%
08:00 -9°C° 0 mm 3 m/s 738 mmHg 94%
09:00 -7°C° 0 mm 2 m/s 738 mmHg 88%
10:00 -6°C° 0 mm 2 m/s 739 mmHg 83%
11:00 -4°C° 0 mm 2 m/s 739 mmHg 78%
12:00 -5°C° 0.1 mm 3 m/s 739 mmHg 78%
13:00 -4°C° 0.1 mm 3 m/s 739 mmHg 78%
14:00 -4°C° 0.1 mm 4 m/s 739 mmHg 78%
15:00 -4°C° 0.1 mm 4 m/s 739 mmHg 79%
16:00 -5°C° 0.1 mm 3 m/s 739 mmHg 80%
17:00 -6°C° 0.1 mm 3 m/s 740 mmHg 81%
18:00 -6°C° 0 mm 3 m/s 740 mmHg 83%
19:00 -8°C° 0 mm 4 m/s 741 mmHg 85%
20:00 -9°C° 0 mm 4 m/s 741 mmHg 86%
21:00 -9°C° 0 mm 4 m/s 741 mmHg 88%
22:00 -9°C° 0 mm 4 m/s 742 mmHg 89%
23:00 -10°C° 0 mm 5 m/s 742 mmHg 90%

Amanhã, 6 Março, Sábado

Tempo Temperatura Precipitação Vento Pressão Humidade
00:00 -9°C° 0.1 mm 4 m/s 742 mmHg 89%
01:00 -9°C° 0.1 mm 4 m/s 743 mmHg 89%
02:00 -10°C° 0.1 mm 4 m/s 743 mmHg 88%
03:00 -9°C° 0 mm 3 m/s 743 mmHg 90%
04:00 -10°C° 0 mm 3 m/s 743 mmHg 91%
05:00 -12°C° 0 mm 3 m/s 743 mmHg 93%
06:00 -12°C° 0 mm 3 m/s 744 mmHg 92%
07:00 -10°C° 0 mm 3 m/s 744 mmHg 92%
08:00 -10°C° 0 mm 3 m/s 744 mmHg 91%
09:00 -9°C° 0 mm 3 m/s 745 mmHg 86%
10:00 -9°C° 0 mm 4 m/s 745 mmHg 81%
11:00 -8°C° 0 mm 4 m/s 745 mmHg 76%
12:00 -7°C° 0 mm 4 m/s 745 mmHg 75%
13:00 -7°C° 0 mm 4 m/s 745 mmHg 74%
14:00 -7°C° 0 mm 5 m/s 745 mmHg 72%
15:00 -7°C° 0 mm 4 m/s 744 mmHg 75%
16:00 -7°C° 0 mm 3 m/s 744 mmHg 78%
17:00 -8°C° 0 mm 3 m/s 744 mmHg 80%
18:00 -8°C° 0 mm 3 m/s 744 mmHg 81%
19:00 -9°C° 0 mm 3 m/s 744 mmHg 82%
20:00 -11°C° 0 mm 4 m/s 743 mmHg 82%
21:00 -10°C° 0 mm 4 m/s 743 mmHg 81%
22:00 -11°C° 0 mm 5 m/s 742 mmHg 79%
23:00 -10°C° 0 mm 5 m/s 742 mmHg 77%

Depois de amanhã, 7 Março, Domingo

Tempo Temperatura Precipitação Vento Pressão Humidade
00:00 -10°C° 0 mm 6 m/s 741 mmHg 78%
01:00 -11°C° 0 mm 7 m/s 740 mmHg 79%
02:00 -9°C° 0 mm 7 m/s 739 mmHg 80%
03:00 -10°C° 0 mm 8 m/s 738 mmHg 80%
04:00 -10°C° 0 mm 8 m/s 737 mmHg 81%
05:00 -9°C° 0 mm 9 m/s 735 mmHg 81%
06:00 -9°C° 0.4 mm 9 m/s 734 mmHg 85%
07:00 -9°C° 0.4 mm 10 m/s 733 mmHg 89%
08:00 -8°C° 0.4 mm 11 m/s 732 mmHg 93%
09:00 -8°C° 0.6 mm 10 m/s 731 mmHg 92%
10:00 -7°C° 0.6 mm 10 m/s 731 mmHg 91%
11:00 -7°C° 0.6 mm 10 m/s 731 mmHg 90%
12:00 -6°C° 0.1 mm 9 m/s 731 mmHg 82%
13:00 -7°C° 0.1 mm 8 m/s 732 mmHg 74%
14:00 -7°C° 0.1 mm 8 m/s 732 mmHg 65%
15:00 -8°C° 0 mm 6 m/s 732 mmHg 69%
16:00 -7°C° 0 mm 5 m/s 732 mmHg 73%
17:00 -8°C° 0 mm 4 m/s 732 mmHg 77%
18:00 -8°C° 0 mm 4 m/s 732 mmHg 80%
19:00 -9°C° 0 mm 4 m/s 732 mmHg 82%
20:00 -9°C° 0 mm 4 m/s 731 mmHg 85%
21:00 -10°C° 0 mm 5 m/s 731 mmHg 83%
22:00 -10°C° 0 mm 6 m/s 731 mmHg 82%
23:00 -10°C° 0 mm 6 m/s 730 mmHg 81%

8 Março, Segunda-feira

Tempo Temperatura Precipitação Vento Pressão Humidade
00:00 -11°C° 0.1 mm 7 m/s 731 mmHg 82%
01:00 -11°C° 0.1 mm 7 m/s 731 mmHg 84%
02:00 -11°C° 0.1 mm 8 m/s 731 mmHg 85%
03:00 -12°C° 0.1 mm 7 m/s 732 mmHg 84%
04:00 -12°C° 0.1 mm 6 m/s 732 mmHg 82%
05:00 -14°C° 0.1 mm 5 m/s 732 mmHg 81%
06:00 -14°C° 0 mm 5 m/s 733 mmHg 82%
07:00 -14°C° 0 mm 5 m/s 734 mmHg 83%
08:00 -14°C° 0 mm 5 m/s 735 mmHg 85%
09:00 -13°C° 0 mm 5 m/s 735 mmHg 83%
10:00 -12°C° 0 mm 5 m/s 736 mmHg 82%
11:00 -12°C° 0 mm 5 m/s 736 mmHg 81%
12:00 -11°C° 0 mm 5 m/s 737 mmHg 79%
13:00 -10°C° 0 mm 5 m/s 737 mmHg 76%
14:00 -10°C° 0 mm 5 m/s 738 mmHg 73%
15:00 -10°C° 0 mm 5 m/s 738 mmHg 75%
16:00 -10°C° 0 mm 4 m/s 738 mmHg 78%
17:00 -9°C° 0 mm 3 m/s 738 mmHg 80%
18:00 -10°C° 0 mm 3 m/s 739 mmHg 82%
19:00 -12°C° 0 mm 3 m/s 739 mmHg 84%
20:00 -13°C° 0 mm 3 m/s 740 mmHg 86%
21:00 -13°C° 0 mm 3 m/s 740 mmHg 88%
22:00 -13°C° 0 mm 3 m/s 741 mmHg 89%
23:00 -13°C° 0 mm 3 m/s 741 mmHg 91%

9 Março, Terça-feira

Tempo Temperatura Precipitação Vento Pressão Humidade
00:00 -14°C° 0 mm 3 m/s 741 mmHg 91%
01:00 -15°C° 0 mm 3 m/s 741 mmHg 91%
02:00 -15°C° 0 mm 3 m/s 742 mmHg 91%
03:00 -16°C° 0 mm 3 m/s 742 mmHg 92%
04:00 -17°C° 0 mm 3 m/s 742 mmHg 93%
05:00 -17°C° 0 mm 3 m/s 743 mmHg 93%
06:00 -17°C° 0 mm 3 m/s 743 mmHg 92%
07:00 -18°C° 0 mm 4 m/s 744 mmHg 90%
08:00 -17°C° 0 mm 4 m/s 744 mmHg 89%
09:00 -17°C° 0 mm 4 m/s 745 mmHg 87%
10:00 -16°C° 0 mm 4 m/s 745 mmHg 85%
11:00 -16°C° 0 mm 4 m/s 746 mmHg 83%
12:00 -15°C° 0 mm 4 m/s 746 mmHg 82%
13:00 -14°C° 0 mm 4 m/s 746 mmHg 81%
14:00 -14°C° 0 mm 4 m/s 747 mmHg 80%
15:00 -14°C° 0 mm 4 m/s 747 mmHg 81%
16:00 -13°C° 0 mm 3 m/s 747 mmHg 82%
17:00 -13°C° 0 mm 3 m/s 747 mmHg 83%
18:00 -14°C° 0 mm 3 m/s 748 mmHg 84%
19:00 -14°C° 0 mm 2 m/s 749 mmHg 85%
20:00 -15°C° 0 mm 2 m/s 749 mmHg 87%
21:00 -15°C° 0 mm 2 m/s 749 mmHg 88%
22:00 -16°C° 0 mm 2 m/s 750 mmHg 89%
23:00 -16°C° 0 mm 2 m/s 750 mmHg 90%

10 Março, Quarta-feira

Tempo Temperatura Precipitação Vento Pressão Humidade
00:00 -16°C° 0 mm 2 m/s 750 mmHg 90%
01:00 -16°C° 0 mm 2 m/s 750 mmHg 89%
02:00 -16°C° 0 mm 2 m/s 750 mmHg 89%
03:00 -16°C° 0 mm 2 m/s 750 mmHg 88%
04:00 -16°C° 0 mm 2 m/s 750 mmHg 88%
05:00 -17°C° 0 mm 3 m/s 750 mmHg 87%
06:00 -16°C° 0 mm 3 m/s 750 mmHg 85%
07:00 -16°C° 0 mm 4 m/s 750 mmHg 83%
08:00 -15°C° 0 mm 5 m/s 750 mmHg 82%
09:00 -14°C° 0 mm 5 m/s 750 mmHg 78%
10:00 -12°C° 0 mm 6 m/s 749 mmHg 75%
11:00 -12°C° 0 mm 7 m/s 749 mmHg 71%
12:00 -11°C° 0 mm 7 m/s 749 mmHg 71%
13:00 -11°C° 0 mm 7 m/s 748 mmHg 70%
14:00 -9°C° 0 mm 7 m/s 748 mmHg 70%
15:00 -11°C° 0 mm 7 m/s 748 mmHg 71%
16:00 -10°C° 0 mm 6 m/s 747 mmHg 71%
17:00 -10°C° 0 mm 6 m/s 747 mmHg 72%
18:00 -10°C° 0 mm 5 m/s 747 mmHg 73%
19:00 -11°C° 0 mm 5 m/s 747 mmHg 73%
20:00 -11°C° 0 mm 5 m/s 747 mmHg 74%
21:00 -11°C° 0 mm 5 m/s 747 mmHg 76%
22:00 -11°C° 0 mm 5 m/s 747 mmHg 77%
23:00 -11°C° 0 mm 5 m/s 747 mmHg 79%
Mostrar mais

Necessitamos do seu Consentimento

A Meteoprog e os seus Fornecedores de Serviços podem armazenar e aceder a dados pessoais como cookies, identificadores do dispositivo ou outras tecnologias semelhantes existentes no seu dispositivo e processar estes dados para personalizar conteúdos e anúncios, assim como funcionalidades nas redes sociais e análise de tráfego.

  • Armazenar e/ou aceder a informações no seu dispositivo

    Os cookies, identificadores do dispositivo ou outras informações podem ser armazenados ou acedidos no seu dispositivo, para os fins acima indicados.

  • Anúncios e conteúdos personalizados, medição de anúncios e conteúdos, dados sobre o público-alvo e desenvolvimento de produtos

    Os anúncios e os conteúdos podem ser personalizados com base num perfil. Podem ser adicionados dados adicionais para uma maior personalização dos anúncios e dos conteúdos. A eficácia dos anúncios e dos conteúdos pode ser medida. Podem ser obtidas informações sobre o público que visualizou os anúncios e os conteúdos. Estes dados podem ser usados para desenvolver ou melhorar sistemas, softwares ou a experiência do utilizador.

Ao clicar em "Eu concordo”, permitirá o uso de cookies, identificadores do dispositivo e web beacons mencionados ou outras tecnologias semelhantes. As configurações do navegador do seu dispositivo podem ser alteradas.

Para certos fins, podem ser invocados interesses legítimos ao invés de consentimento. Pode ler mais informação sobre este assunto na nossa Política de Privacidade e Cookies.